World > North America > United States > Mississippi

Geeville, Mississippi Regional Weather

Lat: 34.51N, Lon: 88.64W
Wx Zone: MSZ009Web Search

Ads allow us to feed your daily addiction for the world's greatest weather information. We're determined to offer quality sponsors, in the least annoying way possible.

Feedback


°F Click to change Geeville hourly weather to Imperial units.Click to change Geeville hourly weather to Metric units. °C
Geeville Weather Map
UTC Time: 4/13/2021, 20:03
Your Time:

Geeville, MS Regional Weather

Expires:202104132000;;500200
ASUS44 KJAN 131910
RWRMS 

MISSISSIPPI HOURLY WEATHER ROUNDUP
NATIONAL WEATHER SERVICE JACKSON MS
200 PM CDT TUE APR 13 2021

NOTE: "FAIR: INDICATES FEW OR NO CLOUDS BELOW 12,000 FEET WITH NO
SIGNIFICANT WEATHER AND/OR OBSTRUCTIONS TO VISIBILITY.


MSZ003>006-009-014>017-022>024-029>033-037>039-132000-
NORTHEAST MISSISSIPPI
  
CITY           SKY/WX    TMP DP  RH WIND       PRES   REMARKS
ABERDEEN       FAIR      81  50  34 SE6       30.03S                  
COLUMBUS AFB   PTSUNNY   82  48  30 S6        30.02F                  
CORINTH        MOCLDY    77  55  47 VRB6      30.01F                  
GOLDN TRIANGLE PTSUNNY   81  50  33 S10       30.03F                  
STARKVILLE     FAIR      79  52  38 SE9       30.03F                  
TUPELO         CLOUDY    81  58  45 S9        30.00F                  
$$


SKY/WX - Weather  TMP - Temperature  DP - Dew Point  RH - Relative Humidity
WIND - Wind Direction/Speed PRES - Barometric Pressure VSB - Visibility
WCI - Wind Chill Index E13G22 Wind - East Wind 13 mph/Gusts of 22 mph